Regional Weather Roundup
Issued by NWS

Home | Current Version | Previous Version | Graphics & Text | Print | Product List | Glossary On
Versions: 1 2 3 4 5 6 7 8 9 10 11 12 13 14 15 16 17 18 19 20 21 22 23 24 25 26 27 28 29 30 31 32 33 34 35 36 37 38 39 40 41 42 43 44 45 46 47 48 49 50
000
ASUS43 KDMX 130001
RWRIA

WEATHER ROUNDUP FOR IOWA
NATIONAL WEATHER SERVICE DES MOINES IA
600 PM CST TUE DEC 12 2017

NOTE: "FAIR" INDICATES FEW OR NO CLOUDS BELOW 12,000 FEET WITH NO
SIGNIFICANT WEATHER AND/OR OBSTRUCTIONS TO VISIBILITY.

* - THESE STATIONS ARE NOT NWS STATIONS...THUS NOT UNDER NWS
QUALITY CONTROL.  THEY ALSO DO NOT REPORT WEATHER SUCH
AS PRECIPITATION OR FOG.

IAZ001>003-012>014-020>022-031>034-043>046-130100-
   NORTHWEST IOWA

CITY           SKY/WX    TMP DP  RH WIND       PRES   REMARKS
CARROLL *      CLEAR     27  19  74 S7        29.97F WCI  19
CHEROKEE *     CLEAR     29  24  79 S7        29.92F WCI  22
DENISON *      CLEAR     32  23  69 S9        29.98F WCI  24
LE MARS *      CLEAR     34  27  75 S5        29.91F WCI  30
ORANGE CITY *  CLEAR     30  28  93 SW9       29.89F WCI  22
SHELDON *      CLEAR     32  27  80 S9        29.87F WCI  24
SIOUX CITY     CLEAR     33  23  66 S5        29.93F WCI  29
6HR MIN TEMP:  32; 6HR MAX TEMP:  45;

SPENCER        CLEAR     31  23  72 SW10      29.90F WCI  22
6HR MIN TEMP:  28; 6HR MAX TEMP:  38;

STORM LAKE *   CLEAR     28  21  74 SW10      29.92F WCI  19
$$

IAZ055>058-069>071-079>083-090>094-130100-
   SOUTHWEST IOWA

CITY           SKY/WX    TMP DP  RH WIND       PRES   REMARKS
ATLANTIC *     CLEAR     28  21  74 SW7       29.99F WCI  21
AUDUBON *      CLEAR     30  23  74 S7        29.99F WCI  23
CLARINDA *     PTCLDY    28  21  74 SW6       30.05F WCI  22
COUNCIL BLFS * CLEAR     34  27  75 S8        29.99F WCI  27
CRESTON *      CLOUDY    27  19  74 SW9       30.02F WCI  17
HARLAN  *      CLEAR     30  23  74 S8        30.01F WCI  23
LAMONI         CLOUDY    28  18  66 SW9       30.04F WCI  19
6HR MIN TEMP:  28; 6HR MAX TEMP:  35;

RED OAK *      CLEAR     30  23  74 S7        30.02F WCI  23
SHENANDOAH *   CLEAR     32  23  69 S7        30.05F WCI  26
$$

IAZ047>049-059>061-072>074-084-130100-
   CENTRAL IOWA

CITY           SKY/WX    TMP DP  RH WIND       PRES   REMARKS
AMES           CLEAR     28  20  71 SW10      29.99F WCI  19
6HR MIN TEMP:  25; 6HR MAX TEMP:  34;

ANKENY *       CLEAR     30  19  64 SW5       30.03S WCI  25
BOONE *        MOCLDY    30  19  64 SW12      29.97F WCI  21
CHARITON *     CLOUDY    28  16  59 SW8       30.03F WCI  20
DES MOINES     PTCLDY    30  19  63 SW9       30.02F WCI  22
6HR MIN TEMP:  26; 6HR MAX TEMP:  33;

GRINNELL*      CLOUDY    26   9  50 SW8       30.03S WCI  17
KNOXVILLE *    CLEAR     28  10  47 SW8       30.01F WCI  20
MARSHALLTOWN   CLEAR     26  14  60 SW8       29.99F WCI  18
6HR MIN TEMP:  23; 6HR MAX TEMP:  30;

NEWTON *       CLOUDY    27  10  50 SW8       30.02F WCI  18
PELLA *        CLOUDY    28  10  48 SW5       30.04F WCI  22
PERRY *          N/A     28  17  63 SW7       30.00S WCI  21
$$

IAZ004>006-015-016-023>025-035-036-130100-
   NORTH CENTRAL IOWA

CITY           SKY/WX    TMP DP  RH WIND       PRES   REMARKS
ALGONA *       PTCLDY    30  23  74 SW12      29.91F WCI  21
CLARION *      CLOUDY    28  21  74 SW9       29.95F WCI  20
ESTHERVILLE    CLEAR     32  25  75 SW15      29.88F WCI  22
6HR MIN TEMP:  28; 6HR MAX TEMP:  35;

FORT DODGE *   CLEAR     31  22  69 SW10      29.95F WCI  22
MASON CITY     CLEAR     27  19  72 S8        29.93F WCI  19
6HR MIN TEMP:  21; 6HR MAX TEMP:  31;

FOREST CITY *    N/A     30  23  74 SW6       29.92F WCI  24
WEBSTER CITY * MOCLDY    28  19  69 SW10      29.94F WCI  19
IOWA FALLS *     N/A     26  19  72 SW7       29.99S WCI  19
$$

IAZ007>011-017>019-026>030-037>042-050>054-066-130100-
   NORTHEAST IOWA

CITY           SKY/WX    TMP DP  RH WIND       PRES   REMARKS
CEDAR RAPIDS   CLOUDY    24   6  46 S3        30.02F
6HR MIN TEMP:  21; 6HR MAX TEMP:  29;

CHARLES CITY * CLOUDY    27  16  63 S9        29.96F WCI  17
CLINTON *      CLOUDY    23  12  62 W7        30.05F WCI  15
DECORAH *      CLOUDY    23  12  63 VRB6      29.95F WCI  16
DUBUQUE        CLOUDY    21  12  68 SW6       30.00F WCI  13
6HR MIN TEMP:  18; 6HR MAX TEMP:  22;

MONTICELLO *   CLOUDY    25   5  42 SW7       30.01F WCI  17
OELWEIN *      CLOUDY    25  10  54 S7        29.99F WCI  17
WATERLOO       MOCLDY    23  12  62 S7        29.99F WCI  15
6HR MIN TEMP:  21; 6HR MAX TEMP:  27;

$$

IAZ064-065-067-068-078-130100-
   EAST CENTRAL IOWA

CITY           SKY/WX    TMP DP  RH WIND       PRES   REMARKS
DAVENPORT      CLOUDY    26   6  42 W8        30.07F WCI  18
6HR MIN TEMP:  23; 6HR MAX TEMP:  27;

IOWA CITY      MOCLDY    27   5  39 SW5       30.06F WCI  22
6HR MIN TEMP:  25; 6HR MAX TEMP:  30;

MT. PLEASANT * CLOUDY    26   2  35 SW3       30.07F
MUSCATINE *    PTCLDY    27   1  33 W5        30.07F WCI  21
QUAD CITIES    CLOUDY    27   5  39 SW6       30.06F WCI  20
6HR MIN TEMP:  26; 6HR MAX TEMP:  30;

$$

IAZ062-063-075>077-085>089-095>099-130100-
   SOUTHEAST IOWA

CITY           SKY/WX    TMP DP  RH WIND       PRES   REMARKS
BURLINGTON     CLOUDY    27   5  39 W3        30.07F
6HR MIN TEMP:  26; 6HR MAX TEMP:  31;

FAIRFIELD *    CLEAR     27   1  33 SW5       30.04F WCI  21
FORT MADISON * CLOUDY    28   3  34 CALM      30.08F
KEOKUK *       MOCLDY    28   3  34 SW3       30.07F
OSKALOOSA *      N/A     22   5  48 SW6       30.05F WCI  15
OTTUMWA        CLEAR     24   5  44 SW7       30.04F WCI  16
6HR MIN TEMP:  24; 6HR MAX TEMP:  33; 6HR PCP: TRACE;

WASHINGTON *   MOCLDY    27   3  36 CALM      30.07F
$$

ABBREVIATIONS USED IN REMARKS
   TC - TEMPERATURES IN CELSIUS
  WCI - WIND CHILL INDEX
   HX - HEAT INDEX
  VSB - VISIBILITY
$$





USA.gov is the U.S. government's official web portal to all federal, state and local government web resources and services.